Regional Weather Roundup
Issued by NWS Albany, NY

Home | Current Version | Previous Version | Graphics & Text | Print | Product List | Glossary On
Versions: 1 2 3 4 5 6 7 8 9 10 11 12 13 14 15 16 17 18 19 20 21 22 23 24 25 26 27 28 29 30 31 32 33 34 35 36 37 38 39 40 41 42 43 44 45 46 47 48 49 50
219
ASUS41 KALY 171110
RWRALY

NEW YORK STATE HOURLY WEATHER ROUNDUP
NATIONAL WEATHER SERVICE ALBANY NY
600 AM EST FRI NOV 17 2017

NOTE: "FAIR" INDICATES FEW OR NO CLOUDS BELOW 12,000 FEET WITH NO
SIGNIFICANT WEATHER AND/OR NO OBSTRUCTIONS TO VISIBILITY.

NYZ032-033-038>043-046>054-057>066-NYZ062>081-082-084-171200-
EAST


CITY           SKY/WX    TMP DP  RH WIND       PRES   REMARKS
ALBANY         MOCLDY    34  23  64 W24G40    29.99R WCI  21
GLENS FALLS    CLOUDY    33  23  66 NW12G20   29.99R WCI  24
POUGHKEEPSIE   PTCLDY    38  24  57 W8        29.98R WCI  32
NEWBURGH       PTCLDY    37  28  70 NW17G29   30.00R WCI  28
MONTGOMERY     MOCLDY    38  26  62 NW7       30.00R WCI  33
WHITE PLAINS   PTCLDY    39  25  57 W20G33    29.95R WCI  29
ISLIP          PTCLDY    41  27  57 NW15G25   29.95R
NEW YORK CITY  PTCLDY    43  28  55 NW26G36   30.00R
CENTRAL PARK   CLEAR     40  25  55 NW12G25   30.03R WCI  33
$$

NYZ005>009-017-018-044>046-055-056-171200-
CENTRAL


CITY           SKY/WX    TMP DP  RH WIND       PRES   REMARKS
FULTON         CLOUDY    32  23  69 NW17G29   30.15R WCI  21
SYRACUSE       FLURRIES  33  27  78 NW21G26   30.13R WCI  21
ROME           CLOUDY    31  25  78 NW12      30.11R WCI  22
ELMIRA         CLOUDY    34  26  72 N9        30.14R WCI  27
BINGHAMTON     CLOUDY    28  23  81 NW20G33   30.06R WCI  15
MONTICELLO     CLOUDY    32  25  75 NW15G32   30.00R WCI  22
$$

NYZ026>034-041>043-087-171200-
NORTH


CITY           SKY/WX    TMP DP  RH WIND       PRES   REMARKS
WATERTOWN      CLOUDY    29  21  72 NW13      30.16R WCI  19
FORT DRUM      NOT AVBL
OGDENSBURG     MOCLDY    28  21  74 NW13      30.13R WCI  18
MASSENA        CLOUDY    29  21  72 W13       30.11R WCI  19
SARANAC LAKE   CLOUDY    22  21  96 VRB6G18   29.96R WCI  14
PLATTSBURGH    CLOUDY    30  20  66 NW12G26   29.99R WCI  20
$$

NYZ001>004-010>016-019>021-085-171200-
WEST


CITY           SKY/WX    TMP DP  RH WIND       PRES   REMARKS
NIAGARA FALLS  CLOUDY    33  21  61 N8        30.22S WCI  26
BUFFALO        CLOUDY    32  23  69 NW10      30.22R WCI  24
DUNKIRK        CLOUDY    33  25  72 NW6       30.23R WCI  28
JAMESTOWN      CLOUDY    28  25  86 NW7       30.17R WCI  21
WELLSVILLE     CLOUDY    30  22  72 NW13      30.13R WCI  20
ROCHESTER      MOCLDY    31  24  75 NW10      30.21R WCI  22
PENN YAN       CLOUDY    31  22  69 NW10G22   30.16R WCI  22
$$

             KEY
       WCI = WIND CHILL INDEX
       VSB = VISIBILITY
       HX  = HEAT INDEX
$$




USA.gov is the U.S. government's official web portal to all federal, state and local government web resources and services.